Location: Colonial Hills
(40.5656°N, 77.6119°W)
Time: 15:29:11
(UTC+00:00)

X-37B - Pass Details

Date: 28 November 2020
Orbit: 384 x 390 km, 45.0° (Epoch: 02 January)

Event Time Altitude Azimuth Distance (km) Brightness Sun altitude
Rises 23:15:27 0° 247° (WSW) 2,256 6.1 -16.9°
Reaches altitude 10° 23:17:31 10° 247° (WSW) 1,406 4.7 -17.2°
Maximum altitude 23:20:41 89° 338° (NNW) 390 0.5 -17.8°
Enters shadow 23:21:05 65° 64° (ENE) 427 0.4 -17.9°
